| time (UTC) | temp F | wind direction | speed MPH | gust MPH | rain 1hr in | rain 24hr in | rain mn in | humidity % | barometer mb |
| 20260906060022 | 54 | 180 | 9.0 | 14.0 | 0.00 | 0.13 | 0.00 | 84 | 1024.6 |
| 20260906055552 | 54 | 300 | 6.0 | 13.0 | 0.00 | 0.13 | 0.00 | 85 | 1024.7 |
| 20260906055501 | 54 | 261 | 6.0 | 13.0 | 0.00 | 0.13 | 0.00 | 85 | 1024.7 |
| 20260906055035 | 54 | 254 | 5.0 | 11.0 | 0.00 | 0.13 | 0.00 | 85 | 1024.7 |
| 20260906054516 | 54 | 236 | 4.0 | 12.0 | 0.00 | 0.13 | 0.00 | 85 | 1024.5 |
| 20260906054025 | 53 | 244 | 6.0 | 12.0 | 0.00 | 0.13 | 0.00 | 85 | 1024.3 |
| 20260906053532 | 53 | 241 | 5.0 | 15.0 | 0.00 | 0.13 | 0.00 | 85 | 1024.3 |
| 20260906053044 | 53 | 290 | 6.0 | 15.0 | 0.00 | 0.13 | 0.00 | 85 | 1024.2 |
| 20260906052555 | 53 | 251 | 7.0 | 14.0 | 0.00 | 0.13 | 0.00 | 85 | 1024.1 |
| 20260906052006 | 53 | 242 | 7.0 | 13.0 | 0.00 | 0.13 | 0.00 | 86 | 1024.1 |
| 20260906051542 | 53 | 278 | 7.0 | 17.0 | 0.00 | 0.13 | 0.00 | 86 | 1024.1 |
| 20260906051024 | 53 | 277 | 9.0 | 17.0 | 0.00 | 0.13 | 0.00 | 86 | 1024.1 |
| 20260906050533 | 53 | 289 | 6.0 | 15.0 | 0.00 | 0.13 | 0.00 | 86 | 1024.1 |
| 20260906050046 | 53 | 266 | 6.0 | 17.0 | 0.00 | 0.13 | 0.00 | 86 | 1024.0 |
| 20260906045554 | 53 | 265 | 8.0 | 17.0 | 0.00 | 0.13 | 0.00 | 86 | 1023.9 |
| 20260906045004 | 53 | 269 | 8.0 | 16.0 | 0.00 | 0.13 | 0.00 | 86 | 1023.8 |
| 20260906044516 | 53 | 261 | 8.0 | 14.0 | 0.00 | 0.13 | 0.00 | 86 | 1023.7 |
| 20260906044023 | 53 | 276 | 7.0 | 14.0 | 0.00 | 0.13 | 0.00 | 86 | 1023.7 |
| 20260906043532 | 53 | 280 | 5.0 | 11.0 | 0.00 | 0.13 | 0.00 | 85 | 1023.6 |
| 20260906043026 | 53 | 267 | 6.0 | 13.0 | 0.00 | 0.13 | 0.00 | 85 | 1023.5 |
| 20260906042555 | 53 | 261 | 8.0 | 13.0 | 0.00 | 0.13 | 0.00 | 85 | 1023.5 |
| 20260906042004 | 53 | 259 | 6.0 | 13.0 | 0.00 | 0.13 | 0.00 | 85 | 1023.5 |
| 20260906041511 | 53 | 278 | 7.0 | 14.0 | 0.00 | 0.13 | 0.00 | 85 | 1023.3 |
| 20260906041019 | 53 | 277 | 9.0 | 14.0 | 0.00 | 0.13 | 0.00 | 85 | 1023.3 |
| 20260906040554 | 53 | 267 | 9.0 | 16.0 | 0.00 | 0.13 | 0.00 | 85 | 1023.2 |
| 20260906040503 | 53 | 273 | 9.0 | 16.0 | 0.00 | 0.13 | 0.00 | 85 | 1023.2 |
| 20260906040037 | 54 | 286 | 8.0 | 16.0 | 0.00 | 0.13 | 0.00 | 85 | 1023.1 |
| 20260906035518 | 54 | 259 | 8.0 | 18.0 | 0.00 | 0.13 | 0.00 | 85 | 1023.1 |
| 20260906035026 | 54 | 271 | 10.0 | 18.0 | 0.00 | 0.13 | 0.00 | 85 | 1023.1 |
| 20260906034552 | 54 | 248 | 8.0 | 17.0 | 0.00 | 0.13 | 0.00 | 85 | 1023.1 |
| 20260906034046 | 54 | 238 | 10.0 | 17.0 | 0.00 | 0.13 | 0.00 | 85 | 1023.0 |
| 20260906033554 | 54 | 297 | 7.0 | 18.0 | 0.00 | 0.13 | 0.00 | 85 | 1023.0 |
| 20260906033004 | 54 | 274 | 11.0 | 18.0 | 0.00 | 0.13 | 0.00 | 85 | 1023.0 |
| 20260906032538 | 54 | 259 | 8.0 | 14.0 | 0.00 | 0.13 | 0.00 | 85 | 1022.9 |
| 20260906032022 | 54 | 303 | 6.0 | 17.0 | 0.00 | 0.13 | 0.00 | 85 | 1022.9 |
| 20260906031532 | 54 | 273 | 10.0 | 17.0 | 0.00 | 0.13 | 0.00 | 85 | 1022.8 |
| 20260906031042 | 54 | 265 | 9.0 | 15.0 | 0.00 | 0.13 | 0.00 | 86 | 1022.8 |
| 20260906030552 | 54 | 293 | 6.0 | 13.0 | 0.00 | 0.13 | 0.00 | 86 | 1022.8 |
| 20260906030100 | 54 | 267 | 8.0 | 13.0 | 0.00 | 0.13 | 0.00 | 86 | 1022.8 |
| 20260906030003 | 54 | 290 | 9.0 | 13.0 | 0.00 | 0.13 | 0.00 | 86 | 1022.8 |
| 20260906025515 | 54 | 257 | 9.0 | 13.0 | 0.00 | 0.13 | 0.00 | 86 | 1022.9 |
| 20260906025022 | 54 | 270 | 7.0 | 12.0 | 0.00 | 0.13 | 0.00 | 86 | 1022.8 |
| 20260906024606 | 54 | 242 | 6.0 | 11.0 | 0.00 | 0.13 | 0.00 | 86 | 1022.7 |
| 20260906024504 | 54 | 282 | 6.0 | 11.0 | 0.00 | 0.13 | 0.00 | 86 | 1022.7 |
| 20260906024040 | 54 | 230 | 6.0 | 13.0 | 0.00 | 0.13 | 0.00 | 86 | 1022.8 |
| 20260906023522 | 54 | 281 | 6.0 | 13.0 | 0.00 | 0.13 | 0.00 | 86 | 1022.8 |
| 20260906023031 | 54 | 276 | 4.0 | 13.0 | 0.00 | 0.13 | 0.00 | 86 | 1022.8 |
| 20260906022545 | 54 | 257 | 8.0 | 13.0 | 0.00 | 0.13 | 0.00 | 86 | 1022.7 |
| 20260906022048 | 54 | 292 | 8.0 | 14.0 | 0.00 | 0.13 | 0.00 | 86 | 1022.6 |
| 20260906021602 | 54 | 246 | 8.0 | 14.0 | 0.00 | 0.13 | 0.00 | 86 | 1022.5 |
| 20260906021006 | 54 | 254 | 6.0 | 17.0 | 0.00 | 0.13 | 0.00 | 85 | 1022.5 |
| 20260906020513 | 54 | 266 | 9.0 | 17.0 | 0.00 | 0.13 | 0.00 | 85 | 1022.4 |
| 20260906020020 | 54 | 267 | 8.0 | 13.0 | 0.00 | 0.13 | 0.00 | 85 | 1022.5 |
| 20260906015509 | 54 | 240 | 6.0 | 11.0 | 0.00 | 0.13 | 0.00 | 85 | 1022.4 |
| 20260906015046 | 54 | 263 | 5.0 | 11.0 | 0.00 | 0.13 | 0.00 | 85 | 1022.5 |
| 20260906014528 | 54 | 271 | 6.0 | 11.0 | 0.00 | 0.13 | 0.00 | 85 | 1022.4 |
| 20260906014043 | 54 | 254 | 7.0 | 13.0 | 0.00 | 0.13 | 0.00 | 84 | 1022.3 |
| 20260906013548 | 55 | 252 | 6.0 | 14.0 | 0.00 | 0.13 | 0.00 | 84 | 1022.3 |
| 20260906013056 | 55 | 257 | 8.0 | 14.0 | 0.00 | 0.13 | 0.00 | 84 | 1022.2 |
| 20260906012506 | 55 | 277 | 7.0 | 13.0 | 0.00 | 0.13 | 0.00 | 84 | 1022.2 |
| 20260906012012 | 55 | 248 | 8.0 | 19.0 | 0.00 | 0.13 | 0.00 | 83 | 1022.2 |
| 20260906011551 | 55 | 239 | 9.0 | 19.0 | 0.00 | 0.13 | 0.00 | 83 | 1022.2 |
| 20260906011038 | 55 | 255 | 8.0 | 18.0 | 0.00 | 0.13 | 0.00 | 83 | 1022.1 |
| 20260906010544 | 55 | 277 | 12.0 | 18.0 | 0.00 | 0.13 | 0.00 | 83 | 1021.9 |
| 20260906010121 | 55 | 251 | 10.0 | 17.0 | 0.00 | 0.13 | 0.00 | 83 | 1021.9 |
| 20260906005559 | 55 | 254 | 10.0 | 17.0 | 0.00 | 0.13 | 0.00 | 83 | 1021.9 |
| 20260906005503 | 55 | 305 | 9.0 | 16.0 | 0.00 | 0.13 | 0.00 | 83 | 1021.9 |
| 20260906005010 | 55 | 259 | 10.0 | 16.0 | 0.00 | 0.13 | 0.00 | 83 | 1021.9 |
| 20260906004518 | 55 | 259 | 10.0 | 16.0 | 0.00 | 0.13 | 0.00 | 83 | 1022.0 |
| 20260906004029 | 55 | 267 | 10.0 | 19.0 | 0.00 | 0.13 | 0.00 | 83 | 1022.0 |
| 20260906003535 | 55 | 250 | 10.0 | 19.0 | 0.00 | 0.13 | 0.00 | 83 | 1021.9 |
| 20260906003016 | 55 | 255 | 7.0 | 16.0 | 0.00 | 0.13 | 0.00 | 83 | 1021.8 |
| 20260906002555 | 55 | 270 | 9.0 | 16.0 | 0.00 | 0.13 | 0.00 | 83 | 1021.7 |
| 20260906002007 | 55 | 263 | 9.0 | 14.0 | 0.00 | 0.13 | 0.00 | 83 | 1021.8 |
| 20260906001528 | 56 | 279 | 8.0 | 14.0 | 0.00 | 0.13 | 0.00 | 82 | 1021.9 |
| 20260906001020 | 56 | 256 | 7.0 | 18.0 | 0.00 | 0.13 | 0.00 | 82 | 1021.8 |
| 20260906000529 | 56 | 259 | 9.0 | 18.0 | 0.00 | 0.13 | 0.00 | 82 | 1021.8 |
| 20260906000036 | 56 | 261 | 9.0 | 15.0 | 0.00 | 0.13 | 0.00 | 82 | 1021.7 |
| 20260905235515 | 56 | 279 | 8.0 | 15.0 | 0.00 | 0.13 | 0.00 | 82 | 1021.7 |
| 20260905235056 | 56 | 251 | 8.0 | 15.0 | 0.00 | 0.13 | 0.00 | 83 | 1021.8 |
| 20260905234506 | 56 | 221 | 8.0 | 15.0 | 0.00 | 0.13 | 0.00 | 83 | 1021.7 |
| 20260905234014 | 56 | 288 | 8.0 | 18.0 | 0.00 | 0.13 | 0.00 | 83 | 1021.7 |
| 20260905233522 | 56 | 273 | 8.0 | 18.0 | 0.00 | 0.13 | 0.00 | 83 | 1021.7 |
| 20260905233032 | 56 | 275 | 9.0 | 16.0 | 0.00 | 0.13 | 0.00 | 82 | 1021.7 |
| 20260905232544 | 56 | 257 | 10.0 | 15.0 | 0.00 | 0.13 | 0.00 | 83 | 1021.6 |
| 20260905232052 | 56 | 253 | 7.0 | 19.0 | 0.00 | 0.13 | 0.00 | 83 | 1021.7 |
| 20260905231555 | 56 | 282 | 12.0 | 19.0 | 0.00 | 0.13 | 0.00 | 83 | 1021.6 |
| 20260905231033 | 56 | 279 | 7.0 | 14.0 | 0.00 | 0.13 | 0.00 | 84 | 1021.6 |
| 20260905230515 | 56 | 251 | 8.0 | 14.0 | 0.00 | 0.13 | 0.00 | 84 | 1021.6 |
| 20260905230054 | 56 | 254 | 8.0 | 14.0 | 0.00 | 0.13 | 0.00 | 84 | 1021.6 |
| 20260905225503 | 56 | 251 | 8.0 | 14.0 | 0.00 | 0.13 | 0.00 | 84 | 1021.6 |
| 20260905225012 | 56 | 251 | 9.0 | 14.0 | 0.00 | 0.13 | 0.00 | 84 | 1021.5 |
| 20260905224524 | 56 | 260 | 8.0 | 18.0 | 0.00 | 0.13 | 0.00 | 84 | 1021.3 |
| 20260905224030 | 56 | 217 | 12.0 | 18.0 | 0.00 | 0.13 | 0.00 | 84 | 1021.2 |
| 20260905223512 | 55 | 261 | 7.0 | 16.0 | 0.00 | 0.13 | 0.00 | 84 | 1021.2 |
| 20260905223054 | 55 | 261 | 10.0 | 16.0 | 0.00 | 0.13 | 0.00 | 85 | 1021.1 |
| 20260905222530 | 55 | 246 | 8.0 | 13.0 | 0.00 | 0.13 | 0.00 | 85 | 1021.1 |
| 20260905222042 | 55 | 274 | 8.0 | 13.0 | 0.00 | 0.13 | 0.00 | 85 | 1021.1 |
| 20260905221547 | 55 | 274 | 5.0 | 11.0 | 0.00 | 0.13 | 0.00 | 85 | 1021.2 |
| 20260905221028 | 55 | 231 | 8.0 | 14.0 | 0.00 | 0.13 | 0.00 | 85 | 1021.2 |
| 20260905220514 | 55 | 243 | 8.0 | 14.0 | 0.00 | 0.13 | 0.00 | 85 | 1021.2 |
| 20260905220047 | 55 | 248 | 7.0 | 14.0 | 0.00 | 0.17 | 0.13 | 86 | 1021.1 |
| 20260905215555 | 55 | 252 | 8.0 | 14.0 | 0.00 | 0.17 | 0.13 | 86 | 1021.1 |
| 20260905215009 | 55 | 254 | 8.0 | 15.0 | 0.00 | 0.17 | 0.13 | 86 | 1021.1 |
| 20260905214516 | 55 | 252 | 9.0 | 15.0 | 0.00 | 0.17 | 0.13 | 86 | 1021.1 |
| 20260905214021 | 55 | 263 | 6.0 | 13.0 | 0.00 | 0.17 | 0.13 | 86 | 1021.0 |
| 20260905213528 | 55 | 278 | 6.0 | 13.0 | 0.00 | 0.17 | 0.13 | 86 | 1021.0 |
| 20260905213035 | 55 | 219 | 5.0 | 13.0 | 0.00 | 0.17 | 0.13 | 87 | 1020.8 |
| 20260905212547 | 56 | 245 | 6.0 | 13.0 | 0.00 | 0.17 | 0.13 | 87 | 1020.9 |
| 20260905212049 | 56 | 265 | 7.0 | 12.0 | 0.00 | 0.17 | 0.13 | 87 | 1020.8 |
| 20260905211536 | 56 | 276 | 5.0 | 10.0 | 0.00 | 0.17 | 0.13 | 86 | 1020.7 |
| 20260905211041 | 56 | 262 | 6.0 | 12.0 | 0.00 | 0.17 | 0.13 | 86 | 1020.7 |
| 20260905210543 | 56 | 232 | 6.0 | 14.0 | 0.00 | 0.17 | 0.13 | 86 | 1020.8 |
| 20260905210037 | 56 | 261 | 4.0 | 13.0 | 0.00 | 0.25 | 0.13 | 86 | 1020.7 |
| 20260905205539 | 56 | 275 | 6.0 | 14.0 | 0.00 | 0.25 | 0.13 | 86 | 1020.8 |
| 20260905205047 | 56 | 286 | 9.0 | 14.0 | 0.00 | 0.25 | 0.13 | 86 | 1020.7 |
| 20260905204558 | 56 | 289 | 8.0 | 13.0 | 0.00 | 0.25 | 0.13 | 87 | 1020.7 |
| 20260905204059 | 56 | 284 | 8.0 | 12.0 | 0.00 | 0.25 | 0.13 | 87 | 1020.6 |
| 20260905204002 | 56 | 279 | 7.0 | 12.0 | 0.00 | 0.25 | 0.13 | 88 | 1020.7 |
| 20260905203512 | 56 | 273 | 8.0 | 14.0 | 0.00 | 0.25 | 0.13 | 88 | 1020.7 |
| 20260905203020 | 56 | 237 | 6.0 | 12.0 | 0.00 | 0.25 | 0.13 | 88 | 1020.6 |
| 20260905202527 | 56 | 254 | 5.0 | 12.0 | 0.00 | 0.25 | 0.13 | 88 | 1020.6 |
| 20260905202009 | 56 | 267 | 5.0 | 13.0 | 0.00 | 0.25 | 0.13 | 88 | 1020.5 |
| 20260905201523 | 56 | 275 | 6.0 | 14.0 | 0.00 | 0.25 | 0.13 | 88 | 1020.4 |
| 20260905201025 | 56 | 264 | 8.0 | 14.0 | 0.00 | 0.25 | 0.13 | 88 | 1020.4 |
| 20260905200534 | 56 | 276 | 6.0 | 11.0 | 0.00 | 0.25 | 0.13 | 88 | 1020.3 |
| 20260905200110 | 56 | 269 | 6.0 | 11.0 | 0.00 | 0.31 | 0.13 | 88 | 1020.2 |
| 20260905195554 | 56 | 286 | 5.0 | 11.0 | 0.00 | 0.31 | 0.13 | 88 | 1020.1 |
| 20260905195006 | 56 | 279 | 6.0 | 12.0 | 0.00 | 0.31 | 0.13 | 88 | 1020.1 |
| 20260905194511 | 56 | 267 | 5.0 | 12.0 | 0.00 | 0.31 | 0.13 | 88 | 1020.0 |
| 20260905194022 | 56 | 250 | 6.0 | 11.0 | 0.00 | 0.31 | 0.13 | 88 | 1020.0 |
| 20260905193529 | 56 | 273 | 4.0 | 12.0 | 0.00 | 0.31 | 0.13 | 88 | 1019.8 |
| 20260905193017 | 56 | 279 | 5.0 | 12.0 | 0.01 | 0.31 | 0.13 | 88 | 1019.9 |
| 20260905192545 | 56 | 261 | 7.0 | 12.0 | 0.01 | 0.31 | 0.13 | 88 | 1019.8 |
| 20260905192028 | 56 | 252 | 4.0 | 13.0 | 0.01 | 0.31 | 0.13 | 88 | 1019.8 |
| 20260905191542 | 56 | 271 | 5.0 | 13.0 | 0.02 | 0.31 | 0.13 | 88 | 1019.8 |
| 20260905191043 | 56 | 213 | 5.0 | 9.0 | 0.02 | 0.31 | 0.13 | 89 | 1019.7 |
| 20260905190525 | 56 | 265 | 5.0 | 12.0 | 0.02 | 0.31 | 0.13 | 89 | 1019.7 |
| 20260905190034 | 56 | 244 | 4.0 | 12.0 | 0.02 | 0.31 | 0.13 | 88 | 1019.7 |
| 20260905185514 | 56 | 259 | 6.0 | 12.0 | 0.02 | 0.31 | 0.13 | 88 | 1019.6 |
| 20260905185055 | 56 | 228 | 5.0 | 11.0 | 0.02 | 0.31 | 0.13 | 88 | 1019.5 |
| 20260905184508 | 56 | 257 | 5.0 | 13.0 | 0.02 | 0.31 | 0.13 | 88 | 1019.6 |
| 20260905184017 | 56 | 243 | 6.0 | 16.0 | 0.02 | 0.31 | 0.13 | 88 | 1019.6 |
| 20260905183526 | 56 | 272 | 8.0 | 16.0 | 0.02 | 0.31 | 0.13 | 87 | 1019.7 |
| 20260905183040 | 56 | 293 | 7.0 | 17.0 | 0.01 | 0.31 | 0.12 | 87 | 1019.5 |
| 20260905182541 | 56 | 279 | 8.0 | 18.0 | 0.01 | 0.31 | 0.12 | 86 | 1019.5 |
| 20260905182025 | 57 | 319 | 9.0 | 21.0 | 0.01 | 0.31 | 0.12 | 85 | 1019.8 |
| 20260905181559 | 57 | 351 | 9.0 | 21.0 | 0.00 | 0.30 | 0.11 | 84 | 1019.7 |
| 20260905181506 | 57 | 271 | 9.0 | 21.0 | 0.00 | 0.30 | 0.11 | 84 | 1019.7 |
| 20260905181045 | 57 | 46 | 5.0 | 20.0 | 0.00 | 0.30 | 0.11 | 85 | 1019.7 |
| 20260905180555 | 57 | 284 | 7.0 | 20.0 | 0.00 | 0.30 | 0.11 | 85 | 1019.7 |
| 20260905180009 | 57 | 296 | 4.0 | 15.0 | 0.00 | 0.30 | 0.11 | 87 | 1019.6 |
| 20260905175516 | 57 | 360 | 1.0 | 8.0 | 0.01 | 0.30 | 0.11 | 88 | 1019.5 |
| 20260905175019 | 57 | 255 | 0.0 | 9.0 | 0.01 | 0.30 | 0.11 | 88 | 1019.4 |
| 20260905174558 | 57 | 212 | 2.0 | 9.0 | 0.01 | 0.30 | 0.11 | 88 | 1019.1 |
| 20260905174502 | 57 | 313 | 2.0 | 9.0 | 0.01 | 0.30 | 0.11 | 88 | 1019.1 |
| 20260905174042 | 57 | 277 | 0.0 | 7.0 | 0.01 | 0.30 | 0.11 | 88 | 1019.0 |
| 20260905173519 | 57 | 267 | 0.0 | 8.0 | 0.01 | 0.30 | 0.11 | 88 | 1018.9 |
| 20260905173039 | 57 | 286 | 3.0 | 8.0 | 0.01 | 0.30 | 0.11 | 87 | 1018.8 |
| 20260905172533 | 58 | 253 | 0.0 | 7.0 | 0.06 | 0.30 | 0.11 | 87 | 1018.6 |
| 20260905172046 | 58 | 271 | 0.0 | 9.0 | 0.11 | 0.30 | 0.11 | 87 | 1018.6 |
| 20260905171553 | 58 | 219 | 3.0 | 11.0 | 0.11 | 0.30 | 0.11 | 87 | 1018.7 |
| 20260905171004 | 58 | 305 | 6.0 | 11.0 | 0.11 | 0.30 | 0.11 | 86 | 1018.7 |
| 20260905170539 | 58 | 296 | 4.0 | 12.0 | 0.11 | 0.30 | 0.11 | 86 | 1018.6 |
| 20260905170021 | 58 | 252 | 6.0 | 12.0 | 0.11 | 0.31 | 0.11 | 85 | 1018.8 |
| 20260905165505 | 59 | 198 | 1.0 | 9.0 | 0.10 | 0.31 | 0.10 | 84 | 1018.6 |
| 20260905165013 | 59 | 217 | 2.0 | 9.0 | 0.10 | 0.31 | 0.10 | 83 | 1018.4 |
| 20260905164520 | 59 | 355 | 1.0 | 9.0 | 0.10 | 0.31 | 0.10 | 83 | 1018.3 |
| 20260905164027 | 60 | 323 | 2.0 | 8.0 | 0.10 | 0.31 | 0.10 | 81 | 1018.0 |
| 20260905163509 | 61 | 284 | 2.0 | 13.0 | 0.10 | 0.31 | 0.10 | 79 | 1017.8 |
| 20260905163043 | 62 | 263 | 1.0 | 23.0 | 0.10 | 0.31 | 0.10 | 77 | 1017.7 |
| 20260905162526 | 65 | 319 | 6.0 | 23.0 | 0.03 | 0.24 | 0.06 | 73 | 1017.9 |
| 20260905162041 | 67 | 319 | 5.0 | 22.0 | 0.00 | 0.20 | 0.00 | 61 | 1017.5 |
| 20260905161547 | 67 | 267 | 13.0 | 23.0 | 0.00 | 0.20 | 0.00 | 59 | 1016.9 |
| 20260905161055 | 67 | 273 | 10.0 | 18.0 | 0.00 | 0.20 | 0.00 | 59 | 1016.7 |
| 20260905160505 | 67 | 238 | 11.0 | 21.0 | 0.00 | 0.20 | 0.00 | 59 | 1016.6 |
| 20260905160013 | 67 | 273 | 8.0 | 17.0 | 0.00 | 0.20 | 0.00 | 60 | 1016.7 |
| 20260905155523 | 68 | 275 | 7.0 | 20.0 | 0.00 | 0.20 | 0.00 | 59 | 1016.6 |
| 20260905155059 | 68 | 262 | 10.0 | 20.0 | 0.00 | 0.20 | 0.00 | 58 | 1016.6 |
| 20260905155006 | 68 | 265 | 10.0 | 20.0 | 0.00 | 0.20 | 0.00 | 58 | 1016.6 |
| 20260905154546 | 68 | 282 | 7.0 | 20.0 | 0.00 | 0.20 | 0.00 | 58 | 1016.5 |
| 20260905154055 | 68 | 232 | 12.0 | 23.0 | 0.00 | 0.20 | 0.00 | 57 | 1016.5 |
| 20260905153505 | 68 | 275 | 13.0 | 23.0 | 0.00 | 0.20 | 0.00 | 58 | 1016.7 |
| 20260905153019 | 68 | 267 | 8.0 | 17.0 | 0.00 | 0.20 | 0.00 | 60 | 1016.6 |
| 20260905152523 | 67 | 275 | 9.0 | 17.0 | 0.00 | 0.20 | 0.00 | 60 | 1016.6 |
| 20260905152029 | 67 | 289 | 10.0 | 22.0 | 0.00 | 0.20 | 0.00 | 60 | 1016.6 |
| 20260905151537 | 67 | 244 | 11.0 | 27.0 | 0.00 | 0.20 | 0.00 | 60 | 1016.6 |
| 20260905151021 | 67 | 246 | 15.0 | 27.0 | 0.00 | 0.20 | 0.00 | 59 | 1016.6 |
| 20260905150554 | 67 | 269 | 12.0 | 22.0 | 0.00 | 0.20 | 0.00 | 60 | 1016.6 |
| 20260905150041 | 67 | 250 | 11.0 | 25.0 | 0.00 | 0.20 | 0.00 | 60 | 1016.5 |
| 20260905145555 | 68 | 267 | 12.0 | 25.0 | 0.00 | 0.20 | 0.00 | 58 | 1016.6 |
| 20260905145003 | 68 | 290 | 9.0 | 23.0 | 0.00 | 0.20 | 0.00 | 59 | 1016.4 |
| 20260905144514 | 68 | 243 | 11.0 | 26.0 | 0.00 | 0.20 | 0.00 | 57 | 1016.5 |
| 20260905144046 | 69 | 268 | 14.0 | 26.0 | 0.00 | 0.20 | 0.00 | 57 | 1016.4 |
| 20260905143529 | 70 | 290 | 14.0 | 24.0 | 0.00 | 0.20 | 0.00 | 57 | 1016.3 |
| 20260905143018 | 69 | 247 | 11.0 | 23.0 | 0.00 | 0.20 | 0.00 | 58 | 1016.4 |
| 20260905142525 | 68 | 293 | 8.0 | 23.0 | 0.00 | 0.20 | 0.00 | 58 | 1016.4 |
| 20260905142032 | 68 | 283 | 8.0 | 25.0 | 0.00 | 0.20 | 0.00 | 59 | 1016.4 |
| 20260905141543 | 68 | 255 | 14.0 | 25.0 | 0.00 | 0.20 | 0.00 | 58 | 1016.5 |
| 20260905141046 | 68 | 227 | 10.0 | 21.0 | 0.00 | 0.20 | 0.00 | 58 | 1016.4 |
| 20260905140555 | 68 | 205 | 11.0 | 23.0 | 0.00 | 0.20 | 0.00 | 58 | 1016.5 |
| 20260905140007 | 68 | 254 | 13.0 | 24.0 | 0.00 | 0.20 | 0.00 | 57 | 1016.5 |
| 20260905135546 | 68 | 235 | 12.0 | 24.0 | 0.00 | 0.20 | 0.00 | 58 | 1016.3 |
| 20260905135025 | 68 | 254 | 10.0 | 24.0 | 0.00 | 0.20 | 0.00 | 57 | 1016.2 |
| 20260905134538 | 69 | 265 | 10.0 | 24.0 | 0.00 | 0.20 | 0.00 | 57 | 1016.2 |
| 20260905134049 | 69 | 265 | 12.0 | 21.0 | 0.00 | 0.20 | 0.00 | 57 | 1016.2 |
| 20260905133555 | 68 | 319 | 12.0 | 22.0 | 0.00 | 0.20 | 0.00 | 58 | 1016.2 |
| 20260905133005 | 68 | 267 | 9.0 | 24.0 | 0.00 | 0.20 | 0.00 | 59 | 1016.3 |
| 20260905132545 | 68 | 274 | 12.0 | 25.0 | 0.00 | 0.20 | 0.00 | 58 | 1016.5 |
| 20260905132055 | 68 | 271 | 9.0 | 19.0 | 0.00 | 0.20 | 0.00 | 59 | 1016.4 |
| 20260905131508 | 68 | 262 | 9.0 | 24.0 | 0.00 | 0.20 | 0.00 | 60 | 1016.3 |
| 20260905131015 | 68 | 236 | 16.0 | 24.0 | 0.00 | 0.20 | 0.00 | 60 | 1016.4 |
| 20260905130520 | 67 | 269 | 11.0 | 18.0 | 0.00 | 0.20 | 0.00 | 62 | 1016.4 |
| 20260905130022 | 67 | 302 | 10.0 | 17.0 | 0.00 | 0.20 | 0.00 | 62 | 1016.3 |
| 20260905125505 | 67 | 245 | 7.0 | 18.0 | 0.00 | 0.20 | 0.00 | 62 | 1016.3 |
| 20260905125017 | 67 | 266 | 7.0 | 18.0 | 0.00 | 0.20 | 0.00 | 61 | 1016.3 |
| 20260905124524 | 67 | 284 | 8.0 | 16.0 | 0.00 | 0.20 | 0.00 | 61 | 1016.3 |
| 20260905124031 | 68 | 273 | 9.0 | 19.0 | 0.00 | 0.20 | 0.00 | 59 | 1016.4 |
| 20260905123538 | 68 | 278 | 10.0 | 19.0 | 0.00 | 0.20 | 0.00 | 58 | 1016.3 |
| 20260905123051 | 68 | 255 | 10.0 | 18.0 | 0.00 | 0.20 | 0.00 | 59 | 1016.3 |
| 20260905122528 | 68 | 238 | 10.0 | 18.0 | 0.00 | 0.20 | 0.00 | 59 | 1016.3 |
| 20260905122040 | 68 | 296 | 8.0 | 18.0 | 0.00 | 0.20 | 0.00 | 59 | 1016.3 |
| 20260905121519 | 68 | 267 | 9.0 | 26.0 | 0.00 | 0.20 | 0.00 | 60 | 1016.2 |
| 20260905121059 | 68 | 234 | 15.0 | 30.0 | 0.00 | 0.20 | 0.00 | 57 | 1016.2 |
| 20260905120509 | 69 | 274 | 16.0 | 30.0 | 0.00 | 0.20 | 0.00 | 57 | 1016.2 |
| 20260905120045 | 69 | 281 | 9.0 | 16.0 | 0.00 | 0.20 | 0.00 | 57 | 1016.1 |
| 20260905115533 | 68 | 265 | 7.0 | 18.0 | 0.00 | 0.20 | 0.00 | 58 | 1016.4 |
| 20260905115046 | 67 | 287 | 9.0 | 18.0 | 0.00 | 0.20 | 0.00 | 58 | 1016.4 |
| 20260905114547 | 67 | 283 | 9.0 | 17.0 | 0.00 | 0.20 | 0.00 | 59 | 1016.4 |
| 20260905114027 | 66 | 265 | 8.0 | 17.0 | 0.00 | 0.20 | 0.00 | 60 | 1016.6 |
| 20260905113509 | 66 | 278 | 7.0 | 16.0 | 0.00 | 0.20 | 0.00 | 59 | 1016.5 |
| 20260905113025 | 66 | 255 | 8.0 | 23.0 | 0.00 | 0.20 | 0.00 | 58 | 1016.5 |
| 20260905112527 | 67 | 249 | 10.0 | 23.0 | 0.00 | 0.20 | 0.00 | 57 | 1016.7 |
| 20260905112009 | 67 | 268 | 14.0 | 23.0 | 0.00 | 0.20 | 0.00 | 56 | 1016.7 |
| 20260905111555 | 68 | 268 | 15.0 | 21.0 | 0.00 | 0.20 | 0.00 | 56 | 1016.8 |
| 20260905111055 | 68 | 227 | 11.0 | 21.0 | 0.00 | 0.20 | 0.00 | 57 | 1016.6 |
| 20260905110505 | 68 | 277 | 11.0 | 24.0 | 0.00 | 0.20 | 0.00 | 57 | 1016.7 |
| 20260905110015 | 67 | 234 | 11.0 | 20.0 | 0.00 | 0.20 | 0.00 | 57 | 1016.8 |
| 20260905105549 | 67 | 232 | 11.0 | 20.0 | 0.00 | 0.20 | 0.00 | 60 | 1016.8 |
| 20260905105031 | 66 | 251 | 8.0 | 25.0 | 0.00 | 0.20 | 0.00 | 59 | 1016.7 |
| 20260905104545 | 67 | 246 | 13.0 | 25.0 | 0.00 | 0.20 | 0.00 | 58 | 1016.7 |
| 20260905104046 | 67 | 210 | 10.0 | 19.0 | 0.00 | 0.20 | 0.00 | 58 | 1016.7 |
| 20260905103528 | 66 | 235 | 10.0 | 19.0 | 0.00 | 0.20 | 0.00 | 58 | 1016.7 |
| 20260905103011 | 67 | 288 | 10.0 | 17.0 | 0.00 | 0.20 | 0.00 | 57 | 1016.7 |
| 20260905102520 | 67 | 223 | 6.0 | 21.0 | 0.00 | 0.20 | 0.00 | 60 | 1016.7 |
| 20260905102031 | 67 | 202 | 8.0 | 23.0 | 0.00 | 0.20 | 0.00 | 61 | 1016.8 |
| 20260905101539 | 67 | 255 | 9.0 | 27.0 | 0.00 | 0.20 | 0.00 | 62 | 1016.8 |
| 20260905101020 | 66 | 286 | 10.0 | 20.0 | 0.00 | 0.20 | 0.00 | 63 | 1016.8 |
| 20260905100528 | 65 | 261 | 11.0 | 21.0 | 0.00 | 0.20 | 0.00 | 62 | 1016.8 |
| 20260905100049 | 66 | 277 | 10.0 | 21.0 | 0.00 | 0.20 | 0.00 | 61 | 1016.8 |
| 20260905095518 | 67 | 268 | 11.0 | 18.0 | 0.00 | 0.20 | 0.00 | 61 | 1016.6 |
| 20260905095023 | 66 | 281 | 9.0 | 19.0 | 0.00 | 0.20 | 0.00 | 62 | 1016.5 |
| 20260905094559 | 66 | 272 | 10.0 | 23.0 | 0.00 | 0.20 | 0.00 | 63 | 1016.6 |
| 20260905094042 | 64 | 286 | 14.0 | 23.0 | 0.00 | 0.20 | 0.00 | 64 | 1016.7 |
| 20260905093551 | 64 | 270 | 12.0 | 21.0 | 0.00 | 0.20 | 0.00 | 64 | 1016.8 |
| 20260905093101 | 64 | 260 | 8.0 | 20.0 | 0.00 | 0.20 | 0.00 | 65 | 1016.7 |
| 20260905092511 | 64 | 270 | 9.0 | 20.0 | 0.00 | 0.20 | 0.00 | 67 | 1016.7 |
| 20260905092018 | 64 | 250 | 9.0 | 19.0 | 0.00 | 0.20 | 0.00 | 66 | 1016.7 |
| 20260905091557 | 64 | 253 | 11.0 | 19.0 | 0.00 | 0.20 | 0.00 | 65 | 1016.7 |
| 20260905091006 | 64 | 250 | 11.0 | 23.0 | 0.00 | 0.20 | 0.00 | 65 | 1016.7 |
| 20260905090514 | 64 | 309 | 12.0 | 23.0 | 0.00 | 0.20 | 0.00 | 65 | 1016.6 |
| 20260905090019 | 64 | 275 | 9.0 | 21.0 | 0.00 | 0.20 | 0.00 | 65 | 1016.7 |
| 20260905085555 | 64 | 255 | 11.0 | 23.0 | 0.00 | 0.20 | 0.00 | 66 | 1016.6 |
| 20260905085506 | 64 | 252 | 11.0 | 23.0 | 0.00 | 0.20 | 0.00 | 65 | 1016.6 |
| 20260905085042 | 64 | 286 | 12.0 | 23.0 | 0.00 | 0.20 | 0.00 | 65 | 1016.6 |
| 20260905084603 | 64 | 269 | 9.0 | 20.0 | 0.00 | 0.20 | 0.00 | 66 | 1016.5 |
| 20260905084059 | 64 | 236 | 12.0 | 21.0 | 0.00 | 0.20 | 0.00 | 66 | 1016.5 |
| 20260905083508 | 64 | 254 | 11.0 | 21.0 | 0.00 | 0.20 | 0.00 | 66 | 1016.4 |
| 20260905083017 | 64 | 180 | 11.0 | 20.0 | 0.00 | 0.20 | 0.00 | 68 | 1016.5 |
| 20260905082554 | 64 | 249 | 11.0 | 22.0 | 0.00 | 0.20 | 0.00 | 68 | 1016.3 |
| 20260905082007 | 64 | 261 | 14.0 | 22.0 | 0.00 | 0.20 | 0.00 | 69 | 1016.5 |
| 20260905081519 | 64 | 253 | 11.0 | 20.0 | 0.00 | 0.20 | 0.00 | 70 | 1016.4 |
| 20260905081026 | 64 | 246 | 12.0 | 20.0 | 0.00 | 0.20 | 0.00 | 69 | 1016.4 |
| 20260905080530 | 64 | 268 | 9.0 | 20.0 | 0.00 | 0.20 | 0.00 | 71 | 1016.3 |
| 20260905080025 | 64 | 253 | 11.0 | 18.0 | 0.00 | 0.20 | 0.00 | 71 | 1016.1 |
| 20260905075521 | 64 | 281 | 10.0 | 18.0 | 0.00 | 0.20 | 0.00 | 72 | 1016.2 |
| 20260905075030 | 63 | 248 | 10.0 | 21.0 | 0.00 | 0.20 | 0.00 | 73 | 1016.1 |
| 20260905074545 | 63 | 271 | 14.0 | 21.0 | 0.00 | 0.20 | 0.00 | 73 | 1015.9 |
| 20260905074047 | 63 | 260 | 9.0 | 17.0 | 0.00 | 0.20 | 0.00 | 75 | 1016.0 |
| 20260905073528 | 63 | 240 | 9.0 | 20.0 | 0.00 | 0.20 | 0.00 | 76 | 1015.9 |
| 20260905073043 | 63 | 282 | 11.0 | 20.0 | 0.00 | 0.20 | 0.00 | 76 | 1016.0 |
| 20260905072552 | 62 | 263 | 9.0 | 17.0 | 0.00 | 0.20 | 0.00 | 77 | 1015.9 |
| 20260905072054 | 62 | 272 | 8.0 | 17.0 | 0.00 | 0.20 | 0.00 | 77 | 1015.8 |
| 20260905071540 | 62 | 243 | 9.0 | 19.0 | 0.00 | 0.20 | 0.00 | 77 | 1015.8 |
| 20260905071048 | 62 | 267 | 7.0 | 19.0 | 0.00 | 0.20 | 0.00 | 79 | 1015.6 |
| 20260905070552 | 61 | 235 | 10.0 | 20.0 | 0.00 | 0.20 | 0.00 | 78 | 1015.6 |
| 20260905070040 | 61 | 236 | 9.0 | 20.0 | 0.00 | 0.20 | 0.00 | 79 | 1015.5 |
| 20260905065516 | 61 | 275 | 12.0 | 18.0 | 0.00 | 0.20 | 0.00 | 80 | 1015.6 |
| 20260905065025 | 61 | 197 | 10.0 | 18.0 | 0.00 | 0.20 | 0.00 | 81 | 1015.6 |
| 20260905064532 | 60 | 264 | 11.0 | 17.0 | 0.00 | 0.20 | 0.00 | 81 | 1015.5 |
| 20260905064014 | 60 | 251 | 10.0 | 16.0 | 0.00 | 0.20 | 0.00 | 81 | 1015.5 |
| 20260905063555 | 60 | 277 | 10.0 | 17.0 | 0.00 | 0.20 | 0.00 | 82 | 1015.5 |
| 20260905063004 | 59 | 252 | 11.0 | 17.0 | 0.00 | 0.20 | 0.00 | 83 | 1015.6 |
| 20260905062514 | 59 | 275 | 7.0 | 16.0 | 0.00 | 0.20 | 0.00 | 83 | 1015.6 |
| 20260905062020 | 59 | 259 | 9.0 | 18.0 | 0.00 | 0.20 | 0.00 | 84 | 1015.6 |
| 20260905061601 | 58 | 250 | 9.0 | 16.0 | 0.00 | 0.20 | 0.00 | 84 | 1015.7 |
| 20260905061502 | 58 | 246 | 7.0 | 16.0 | 0.00 | 0.20 | 0.00 | 84 | 1015.7 |
| 20260905061014 | 58 | 300 | 9.0 | 15.0 | 0.00 | 0.20 | 0.00 | 85 | 1015.6 |
| 20260905060518 | 58 | 292 | 7.0 | 14.0 | 0.00 | 0.20 | 0.00 | 86 | 1015.6 |